Regional Weather Roundup
Issued by NWS Wakefield, VA

Home | Current Version | Previous Version | Graphics & Text | Print | Product List | Glossary On
Versions: 1 2 3 4 5 6 7 8 9 10 11 12 13 14 15 16 17 18 19 20 21 22 23 24 25 26 27
000
ASUS41 KAKQ 140115
RWRAKQ

REGIONAL WEATHER ROUNDUP
NATIONAL WEATHER SERVICE WAKEFIELD VA
800 PM EST WED DEC 13 2017

Note: "fair" indicates few or no clouds below 12,000 feet with no
significant weather and/or obstructions to visibility. * = Denotes
station may not report precipitation (e.g., rain,snow,etc.),
thunder or fog.

VAZ042-051-052>054-056-140200-
NORTHERN VIRGINIA

CITY           SKY/WX    TMP DP  RH WIND       PRES   REMARKS
WASH NATIONAL  FLURRIES  34  14  43 S13       29.71F WCI  25
DULLES         CLOUDY    33   9  36 SE8       29.66F
FORT BELVOIR   CLOUDY    33  11  39 S6        29.69F
QUANTICO       FLURRIES  36  16  44 S18       29.71F
FREDERICKSBRG* CLOUDY    35  13  40 S9        29.70F
STAFFORD*      CLOUDY    33   9  35 S10G17    29.72F
WARRENTON      CLOUDY    35   5  28 S8        29.66F
CULPEPER*      CLOUDY    35   7  30 S8        29.67F
MANASSAS*      CLOUDY    33  10  38 S9        29.68F
LEESBURG*      CLOUDY    34  14  44 S10       29.66F
WINCHESTER     CLOUDY    32  14  47 SE6       29.60F
FRONT ROYAL*   CLOUDY    32  12  43 CALM      29.59F
LURAY*         CLOUDY    36  14  41 SW12      29.57F
$$

VAZ048-049-060>072-079>083-140200-
CENTRAL AND SOUTH CENTRAL VIRGINIA

CITY           SKY/WX    TMP DP  RH WIND       PRES   REMARKS
RICHMOND       CLOUDY    37  13  37 S6        29.76F
CHESTERFIELD*  NOT AVBL
PETERSBURG*    CLOUDY    34  10  37 CALM      29.77F
HANOVER        CLOUDY    35  11  36 S8        29.76F
TAPPAHANNOCK*  CLOUDY    34  13  41 S7        29.77S
QUINTON*       CLOUDY    33  12  41 S8        29.77S
CHARLOTTSVILLE CLOUDY    36  11  35 S9        29.65F
GORDONSVILLE*  CLOUDY    34  11  38 S6        29.67F
ORANGE*        CLOUDY    34  10  37 CALM      29.69F
LOUISA*        CLOUDY    33   8  36 S6        29.74F
BUMPASS*       CLOUDY    33   7  33 S5        29.71F
FARMVILLE*     CLOUDY    37  17  45 S7        29.69F
CREWE*         CLOUDY    34  13  41 S5        29.74S
FORT PICKETT*  NOT AVBL
CHASE CITY*    CLOUDY    37  14  38 S7        29.73F
CLARKSVILLE*   CLOUDY    36  14  41 S7        29.76S
SOUTH HILL*    PTCLDY    35  14  42 S10       29.81F
LAWRENCEVILLE* CLOUDY    33  11  39 S3        29.76S
EMPORIA*       CLOUDY    32  14  47 SE5       29.79F
$$

VAZ088>098-140200-
SOUTHEAST VIRGINIA

CITY           SKY/WX    TMP DP  RH WIND       PRES   REMARKS
NORFOLK        CLEAR     35  13  40 S9        29.81F
VIRGINIA BEACH MOCLDY    33  10  38 S7        29.81F
NORFOLK NAVAL  MOCLDY    36  11  35 S7        29.81F
WEST POINT*    CLOUDY   N/A N/A N/A S6        29.79F
SALUDA*        CLOUDY    33  13  43 S6        29.78S
NEWPORT NEWS   CLOUDY    35  13  40 S8        29.79F
LANGLEY AFB    CLOUDY    35  14  42 S12       29.78F
FORT EUSTIS    CLOUDY    36  13  39 S6        29.76F
WILLIAMSBURG*  CLOUDY    36  16  44 S5        29.80F
HR EXEC AP*    FAIR      32  17  54 S6        29.81F
FRANKLIN*      CLOUDY    32  15  49 S6        29.80F
US460-WAKEFLD  CLOUDY    33  15  47 VRB3      29.77F
$$

VAZ020-022-025-037-045-140200-
WEST CENTRAL AND SOUTHWEST VIRGINIA

CITY           SKY/WX    TMP DP  RH WIND       PRES   REMARKS
STAUNTON*      MOCLDY    32  11  41 S8        29.61F
WAYNESBORO*    CLOUDY    33  11  40 S10G16    29.59F WCI  25
HOT SPRINGS VA CLOUDY    26  10  52 S9        29.50F
LYNCHBURG      CLOUDY    36  13  38 S13       29.65F
DANVILLE       CLOUDY    37  15  40 VRB5      29.71F
SOUTH BOSTON*  CLOUDY    38  12  34 S8        29.72F
MARTINSVILLE   PTCLDY    37  11  35 S3        29.71F
ROANOKE        PTCLDY    36  13  38 S6        29.65F
BLACKSBURG     CLEAR     34  14  43 SW5       29.63F
DUBLIN*        CLEAR     33  15  47 SW3       29.62F
MARION*        CLEAR     31   9  39 W9        29.66R
HILLSVILLE*    CLOUDY    32  13  45 S14G22    29.59F WCI  22
RICHLANDS*     FAIR      35   5  28 SW14G22   29.63R
WISE*          CLEAR     36  10  35 SW25G36   29.62S WCI  23
ABINGDON*      CLEAR     34  13  42 W8        29.68R
$$

MDZ021>025-VAZ099-100-140200-
SOUTHERN MARYLAND AND THE DELMARVA PENINSULA

CITY           SKY/WX    TMP DP  RH WIND       PRES   REMARKS
PATUXENT RIVER CLOUDY    34  11  38 SW8       29.75F
BAY BRIDGE APT CLOUDY    34  10  37 SW7       29.73S
LEONARDTOWN    CLOUDY    34  12  40 S9        29.76S
DOVER          MOCLDY    29  15  54 S7        29.74F
GEORGETOWN     CLOUDY    31  13  47 S6        29.76S
EASTON         CLEAR     36  10  35 SW8       29.77F
CAMBRIDGE      CLOUDY    32  12  43 CALM      29.76R
SALISBURY      CLOUDY    31  16  54 S5        29.76S
OCEAN CITY     CLOUDY    32  16  51 SW8       29.78S
WALLOPS ISLAND CLOUDY    33  17  51 S8        29.80S
ACCOMACK*      CLOUDY    33  16  48 S6        29.79F
$$

NCZ012>017-030>032-140200-
NORTH CENTRAL AND EASTERN NORTH CAROLINA

CITY           SKY/WX    TMP DP  RH WIND       PRES   REMARKS
ROANOKE RAPIDS FAIR      34  14  44 S7        29.80F
RALEIGH        PTCLDY    39  15  37 SW14      29.78F
ELIZABETH CITY CLEAR     33  18  53 S5        29.84F
AHOSKIE*       PTCLDY    30  15  53 S6        29.82F
EDENTON*       CLEAR     38  20  48 S10       29.85F
CURRITUCK*     CLEAR     31  20  63 CALM      29.85S
KILL DEVIL HLS CLEAR     35  17  47 SW3       29.86S
MANTEO         CLEAR     36  20  52 SW9       29.88S
CAPE HATTERAS  CLEAR     40  23  50 W9        29.90R
TARBORO*       NOT AVBL
GOLDSBORO      CLEAR     36  15  42 S7        29.81F
WASHINGTON     CLEAR     36  15  42 S3        29.85F
GREENVILLE     CLEAR     34  18  51 S7        29.87S
NEW BERN       CLEAR     31  19  61 S6        29.89F
WILMINGTON     CLEAR     35  25  66 S6        29.90F
$$

VAZ048-140200-
ELSEWHERE

CITY           SKY/WX    TMP DP  RH WIND       PRES   REMARKS
HARRISBURG PA  CLOUDY    28   9  44 S3        29.66F
BALTIMORE      LGT SNOW  31  14  49 S13G18    29.70F WCI  21
ANNAPOLIS      CLOUDY    32  12  43 S7        29.72F
ANDREWS AFB    CLEAR     32  10  39 S8        29.69F
PHILADELPHIA   CLOUDY    29   5  36 W12       29.72F WCI  19
HENDERSON NC   CLEAR     32  11  41 S9        29.74F
GREENSBORO     CLOUDY    38  14  37 SW13G21   29.71F
ROCKY MOUNT    CLEAR     35  17  47 S8        29.81F
$$

VAZ100-140200-
MARINE

STATION/POSITION TIME  TEMP    WIND        PRES    WAVE   SWELL
                       AIR SEA DIR/SP/G            HT/PER HT/PER
                 (UTC) (F)     (DEG/KT/KT) (MB)    (FT/S) (FT/S)
BRANDYWINE LGT   0048          250/ 14/ 17 1007.6F
CAPE MAY NJ      0048   33 37  260/ 14/ 17 1007.0F
LEWES DE         0048           CALM  /  2 1007.4F
15NM E FENWICK I 2350   35 53  260/ 21/ 25 1008.5    4/ 5
OCEAN-CITY-INLET 0048          240/  9/ 11 1008.7R
WACHAPREAGUE VA  0048   33 39  220/  4/  5 1009.1F
THOMAS POINT MD  0000   34 44  210/ 13/ 15   N/A
GOOSES REEF MD   0100   36 46  200/ 16/ 21 1007.3    1/ 2
COVE POINT MD    0048   34     210/ 12/ 16 1008.0F
SOLOMONS ISLAND  0048   35 47  210/ 11/ 13 1007.3F
BISHOPS HEAD MD  0048   36 34  220/ 16/ 20 1007.8F
PINEY POINT MD   0048          230/ 13/ 15   N/A
POTOMAC MD       0100   36 47  210/ 14/ 17 1007.2    1/ 2
CAMBRIDGE MD     0048                      1008.2F
LEWISETTA VA     0048   34 41  230/  9/ 12 1007.8F
RAPPAHANNOCK LGT 0048          210/ 19/ 22 1008.9F
STINGRAY PT      0100   36 47  230/ 12/ 14 1008.6    1/ 2
YORK RVR RNG VA  0048   37     210/ 15/ 17 1009.0F
YORKTOWN VA      0048   35 47  190/  6/ 11 1007.9F
JAMESTOWN VA     0100      45  190/ 10/ 12   N/A     0
DOMINION TERM VA 0048   36     190/ 11/ 13 1009.3F
KIPTOPEKE VA     0048          240/ 14/ 19   N/A
CAPE HENRY VA    0048   33     200/  5/  9   N/A
WILLOUBY STN VA  0048          210/ 14/ 16 1008.7F
S CRANEY ISL VA  0048   36     200/  7/ 11 1009.4F
CAPE HENRY BUOY  0100      53                N/A     2/ 3
1ST LANDING BUOY 0100   37 49  220/ 14/ 17 1009.4    1/ 3
CAPE CHARLES BUO 0051      50                N/A     2/ 4
64NM E OF VA BCH 0050   41 58  250/ 16/ 21 1010.6F   4/ 5   2/ 8
DUCK PIER NC     0048   39 54  230/ 13/ 18 1010.4F
44100 DUCK FRF   0045      54                N/A     2/ 7
44056 DUCK FRF   0100      55                N/A     2/12
OREGON INLET NC  0036   38 44  230/ 13/ 15 1011.7F
HATTERAS NC      0048   41 49  260/ 10/ 15 1012.2R
DIAMOND SHLS NC  0050   47 74  250/ 12/ 17 1012.3S   5/ 7   5/ 7
CAPE LOOKOUT NC  0000          220/  7/  9 1012.7S
$$




USA.gov is the U.S. government's official web portal to all federal, state and local government web resources and services.